RH
20 20 20 20 19 19 20 20 20 20 20 21 21 22 22 20 18 17 18 20 21 21 22 22 22 23 23 24 26 26 28 29 30 32 33 34 34 34 33 33 32 32
21 21 20 20 21 20 20 21 21 21 21 21 22 22 22 22 21 20 18 20 24 24 24 24 24 26 26 26 27 27 28 29 30 31 32 33 34 35 35 35 34 33
22 22 21 21 21 22 22 22 22 22 22 22 22 22 22 23 24 23 21 20 24 26 26 26 26 27 27 26 27 28 28 29 30 32 33 34 34 35 35 36 36 36
23 22 22 22 22 22 22 23 23 23 24 23 22 22 22 23 24 25 24 22 23 27 28 28 27 25 25 25 27 30 31 31 30 31 33 35 35 35 35 35 36 37
24 23 23 22 22 23 22 23 24 23 24 24 24 23 22 23 23 24 26 25 23 26 29 30 29 27 26 26 30 34 35 36 35 32 31 32 33 35 35 35 35 35
23 24 24 23 22 23 23 23 24 24 25 25 25 25 23 22 23 24 25 26 25 26 29 31 31 30 30 31 33 36 38 40 41 38 33 30 30 31 33 34 34 34
21 23 24 25 23 22 22 22 24 24 25 25 25 26 25 23 23 23 24 26 26 27 29 31 31 29 29 30 31 34 37 39 42 41 36 31 28 28 29 30 31 31
20 23 24 25 24 23 23 22 22 23 23 25 25 26 26 25 24 23 24 26 27 27 30 32 32 30 28 27 28 29 32 35 38 39 37 32 27 26 26 27 27 28
20 22 25 26 25 24 24 23 22 23 22 23 24 25 25 26 25 24 24 25 27 28 30 31 32 31 29 28 28 29 30 32 34 35 34 31 26 25 25 25 26 27
18 20 22 24 26 26 25 25 24 23 23 22 23 24 25 25 25 26 25 24 26 29 30 31 32 32 31 30 29 30 31 32 32 33 32 30 26 24 25 25 26 28
15 19 19 19 22 24 25 27 26 25 24 23 23 23 24 25 25 25 26 24 25 28 30 32 32 33 33 31 30 31 32 32 33 32 31 28 26 24 25 26 28 30
16 17 19 18 19 19 20 23 23 24 24 23 23 23 23 25 24 25 26 25 26 27 30 32 33 34 33 31 30 30 31 31 31 31 29 27 25 25 26 27 29 31
29 18 18 20 20 18 18 18 18 20 21 21 21 22 24 25 24 24 25 25 26 27 29 31 33 33 33 32 32 31 30 30 29 28 27 25 24 25 27 28 30 32
57 36 25 21 22 21 19 17 16 16 17 19 20 22 25 26 25 25 25 26 26 25 28 30 31 33 33 33 34 33 32 31 29 28 26 25 25 26 27 29 30 32
84 64 42 28 24 23 21 17 15 15 16 18 21 23 26 27 26 26 26 26 25 25 26 29 30 32 34 34 34 33 32 31 29 28 26 25 26 27 28 30 30 31
99 86 63 41 27 23 21 16 14 15 16 17 20 23 27 27 27 27 27 26 25 25 27 28 30 32 34 34 34 32 31 30 28 27 26 25 26 27 29 28 28 28
100 96 84 61 36 22 18 16 14 14 14 16 19 23 25 26 26 26 26 25 25 26 27 28 29 31 33 33 33 31 30 28 27 26 25 25 26 27 27 26 24 25
98 99 98 82 52 26 17 15 14 14 13 14 17 21 23 25 25 25 24 24 25 26 27 28 28 29 31 32 30 29 28 26 26 26 25 25 25 25 25 23 21 21
98 98 101 95 69 36 17 15 15 14 14 14 15 18 22 24 24 24 23 23 24 25 26 26 26 27 30 30 27 26 26 25 24 25 25 24 23 22 22 21 19 18
98 94 95 99 86 52 21 14 16 14 13 13 13 15 19 22 23 23 22 22 23 23 24 24 24 25 26 26 25 23 23 23 24 24 23 20 18 18 18 17 17 16
100 96 90 92 92 69 32 14 15 15 13 13 12 13 14 16 18 20 21 22 21 20 21 21 20 20 21 21 21 21 21 22 22 20 18 16 14 14 14 14 15 16
101 99 90 84 85 75 45 20 15 14 12 12 12 11 12 13 14 16 16 17 18 18 19 19 17 16 18 19 18 18 20 20 19 16 14 13 12 12 13 13 14 15
100 96 90 81 77 74 56 30 16 14 14 14 14 12 12 11 11 13 13 13 15 16 15 16 16 15 16 17 16 17 19 18 15 13 12 11 11 11 12 13 14 15
100 96 91 82 76 78 67 41 23 17 12 10 12 14 15 15 11 11 13 12 12 14 14 13 14 14 14 15 15 16 18 16 13 11 10 10 10 11 11 12 14 15
93 96 94 85 76 77 72 52 39 38 35 34 32 23 16 18 18 14 13 14 12 12 13 13 13 13 14 14 15 16 17 16 12 10 9 9 9 10 12 12 13 14
79 88 90 82 69 65 65 56 50 59 72 81 80 61 36 28 30 22 13 13 15 13 12 13 12 12 14 14 15 16 16 15 12 10 8 8 9 10 11 12 13 12
Wind_Speed
20 18 16 14 12 9 8 7 5 4 3 3 2 1 0 1 3 5 5 5 5 5 6 7 9 9 9 9 10 10 10 11 11 11 12 12 12 12 12 13 13 14
23 21 19 16 14 12 10 8 6 5 4 3 3 2 1 0 1 3 4 4 4 4 5 6 7 8 8 8 9 9 9 9 10 10 11 11 11 11 12 12 13 13
26 24 21 19 17 15 13 11 8 7 5 5 5 4 3 2 1 1 2 3 3 3 3 4 5 6 7 7 8 8 8 9 9 10 10 10 10 11 11 11 12 12
28 26 24 22 20 19 17 14 11 9 8 7 8 7 5 4 3 2 2 2 2 2 2 3 4 5 6 7 7 8 8 9 9 9 10 10 10 10 10 10 11 11
29 28 27 25 24 22 19 17 15 12 11 10 10 9 8 6 5 4 4 3 3 2 2 1 2 3 4 5 5 6 7 8 9 10 10 10 9 9 10 10 10 10
28 29 29 28 27 25 22 20 18 16 15 13 12 12 11 9 7 6 6 5 4 4 4 2 1 0 1 2 3 4 5 7 8 9 10 9 9 9 9 9 9 9
28 29 30 30 29 28 25 23 21 20 18 17 16 14 14 12 11 9 8 7 6 5 5 4 3 2 2 1 2 3 4 5 7 8 9 9 9 9 8 8 8 8
29 30 31 31 31 30 28 26 24 22 21 20 19 17 16 15 14 12 10 10 9 8 7 6 6 5 5 4 4 4 5 6 7 8 9 9 9 9 8 8 7 7
30 32 33 33 33 32 31 29 27 25 24 22 21 20 19 18 17 15 13 12 11 10 9 8 8 8 7 7 7 7 7 7 8 9 9 10 10 9 9 8 7 7
30 32 34 35 35 34 33 32 30 29 27 25 23 22 21 20 19 18 16 14 13 12 11 11 10 9 9 9 9 9 9 9 10 10 11 11 11 10 9 8 8 7
29 30 32 33 35 35 35 34 33 32 30 28 26 25 24 23 21 20 18 16 14 14 13 13 12 11 11 11 11 11 11 11 11 12 12 12 11 11 10 10 9 8
29 30 30 30 31 32 33 34 34 33 32 31 29 27 26 24 23 22 20 18 17 16 15 15 14 13 12 11 11 12 12 12 13 13 13 12 12 11 11 11 11 10
30 30 30 29 29 29 30 31 32 32 32 31 30 28 27 25 24 23 21 20 19 18 17 17 15 14 13 12 11 12 13 14 14 14 14 13 12 12 12 11 11 11
30 29 29 29 29 28 28 29 29 30 30 30 29 28 27 25 25 23 23 22 21 20 19 18 16 15 13 12 11 12 13 14 15 15 14 14 13 12 12 12 11 11
29 28 28 28 29 29 29 29 29 29 29 29 29 28 27 26 25 24 24 23 22 21 20 19 17 16 14 12 12 12 13 13 14 15 15 14 13 13 12 12 11 11
30 30 29 29 29 29 29 29 29 29 29 30 30 28 27 26 26 26 25 25 24 23 22 21 19 17 15 14 13 13 13 14 14 15 15 15 14 13 12 11 10 10
34 32 30 29 29 29 29 29 29 29 29 30 30 29 28 27 27 27 27 26 25 24 23 22 20 18 16 15 14 14 14 14 15 15 16 15 14 13 12 11 10 9
36 34 32 30 30 30 30 30 29 29 29 30 30 30 28 27 28 28 27 26 26 25 25 24 22 19 18 17 16 15 15 15 15 16 17 16 15 13 12 10 9 8
37 36 35 32 31 30 30 30 30 30 30 31 31 30 29 28 29 29 28 27 27 27 27 26 24 21 20 19 18 17 17 16 17 17 18 17 15 13 11 10 9 8
38 38 37 35 32 30 30 30 31 32 32 31 31 31 31 31 31 30 29 28 28 28 27 27 25 23 22 21 20 19 18 18 19 19 19 17 14 12 11 9 8 7
40 39 38 36 33 31 31 31 32 32 32 31 31 32 32 32 32 31 31 30 29 29 28 28 27 25 23 22 22 21 20 20 21 21 19 16 13 11 10 9 8 7
42 41 39 37 34 32 31 31 31 31 31 30 30 31 32 32 32 32 32 31 30 29 28 29 29 26 24 23 23 22 21 22 22 21 18 16 13 11 10 9 8 7
45 43 41 39 35 33 32 31 30 29 29 29 29 30 30 31 31 31 31 30 30 30 30 30 29 28 26 25 23 22 22 23 23 20 18 16 13 11 10 9 8 8
46 44 43 42 38 35 33 30 27 25 24 26 27 29 30 31 31 30 30 30 30 30 31 31 30 28 26 25 24 22 22 24 23 21 19 17 14 12 11 10 10 9
50 47 46 45 42 38 34 31 29 29 28 27 27 28 30 31 32 32 32 31 31 31 31 30 29 28 26 25 23 22 23 24 24 22 20 17 14 12 12 12 12 11
55 53 50 48 46 42 36 32 33 35 37 37 36 36 35 34 33 34 35 33 32 32 31 31 29 27 26 25 23 23 24 25 25 24 21 17 14 13 14 15 14 12
Wind_Direction
209 208 210 214 215 213 204 190 186 187 191 195 208 221 110 99 116 118 112 101 90 88 93 95 92 85 78 71 64 59 54 53 52 50 48 46 42 39 37 37 39 40
212 211 211 212 214 219 220 212 207 216 226 230 233 237 245 300 108 127 128 115 97 93 97 99 96 89 80 71 62 54 47 46 45 43 41 40 39 37 36 36 37 38
216 215 214 213 211 216 223 224 223 229 242 255 256 251 248 257 268 183 158 142 114 101 104 103 100 93 83 73 63 53 43 38 36 35 33 31 31 30 30 32 34 36
220 218 217 217 216 217 223 230 235 237 243 256 264 266 261 256 260 260 224 191 166 140 121 109 101 95 87 77 67 55 43 34 30 29 28 24 23 23 23 24 28 32
225 223 222 222 223 223 225 230 237 242 245 253 265 272 271 264 260 262 256 240 221 209 193 147 103 91 86 79 67 54 40 30 24 23 22 19 17 18 18 19 22 25
229 228 228 229 230 230 230 231 236 241 247 255 263 270 274 272 265 259 257 256 249 239 236 239 254 58 73 65 56 44 31 21 14 13 13 11 9 11 13 17 18 20
232 233 233 235 237 238 237 236 238 242 249 256 262 267 272 273 268 261 256 255 254 250 252 260 272 284 303 338 3 14 14 9 3 360 1 360 360 1 5 11 14 16
233 235 237 239 241 243 245 245 245 247 251 256 260 264 268 270 267 263 257 254 254 254 256 264 273 283 293 307 320 334 346 351 349 347 346 348 350 354 357 3 8 10
229 232 236 240 243 246 248 251 253 254 255 257 259 262 264 266 265 262 258 256 256 256 258 263 272 283 294 305 313 322 331 336 338 336 334 337 342 346 350 354 358 1
222 226 230 235 240 244 247 251 254 257 258 260 261 263 264 264 262 260 258 255 256 258 260 263 269 279 291 301 310 317 323 327 329 328 327 330 335 339 340 343 346 348
219 222 225 229 234 239 243 248 252 255 258 260 261 263 264 263 260 257 256 255 255 257 259 263 268 276 285 295 305 312 315 318 320 320 322 325 329 332 332 333 334 336
219 221 223 226 229 233 237 242 246 251 254 257 259 261 262 261 257 253 252 253 254 256 258 262 266 272 280 292 303 309 312 314 314 314 317 319 322 324 324 325 326 327
219 219 221 223 226 228 231 235 239 244 248 251 254 255 257 257 254 250 250 251 252 253 255 258 262 267 276 287 300 308 312 313 313 312 313 314 316 318 318 318 320 322
224 221 221 222 223 224 226 228 231 234 239 242 245 248 250 251 249 247 247 249 250 251 252 255 259 264 272 282 293 302 307 310 310 309 308 309 310 311 311 313 315 318
233 228 225 224 223 223 224 224 225 226 230 233 237 240 244 245 244 243 244 246 248 249 251 254 256 261 268 275 284 292 298 301 302 303 301 300 301 303 304 307 310 314
235 233 229 227 226 226 224 224 223 222 224 227 230 234 238 239 238 238 239 242 244 247 249 251 253 256 261 268 275 283 289 292 293 293 291 291 293 293 295 299 303 307
235 236 234 231 229 229 228 227 225 222 221 223 226 230 233 234 234 234 235 237 240 243 246 248 248 250 254 260 266 273 278 282 283 282 281 282 283 284 286 290 295 300
234 237 238 236 233 231 230 229 228 225 222 221 223 227 230 231 232 232 232 233 236 239 242 244 244 245 249 253 257 262 268 271 272 272 272 272 273 275 277 281 285 291
234 236 238 238 236 233 231 230 230 228 225 222 221 223 227 230 231 232 231 232 234 236 239 242 242 241 244 248 252 255 258 260 261 261 262 263 264 265 266 268 272 279
231 234 235 237 237 235 232 230 230 230 228 225 223 222 224 227 229 231 232 232 234 235 237 240 241 240 240 243 246 248 250 251 251 252 252 252 252 251 251 252 256 262
229 231 232 234 236 235 234 232 232 233 232 230 227 226 225 226 227 229 231 233 234 236 238 241 242 240 239 240 241 241 242 244 244 244 244 243 241 239 238 238 240 247
228 229 230 231 233 234 235 235 235 237 237 236 235 234 232 230 229 229 231 232 235 237 240 242 243 241 239 239 237 235 236 239 240 239 238 237 233 230 230 231 232 237
226 228 229 229 230 231 233 235 238 241 243 243 243 242 241 239 236 234 234 233 234 237 239 241 241 240 239 238 236 233 234 236 236 236 235 234 229 225 227 228 227 233
224 227 229 228 228 228 229 231 236 242 248 250 250 249 248 246 244 241 239 237 235 235 237 238 238 237 237 236 235 232 234 235 235 234 233 230 224 222 225 228 227 229
222 225 227 226 226 225 224 224 227 232 236 242 248 252 252 250 248 245 242 241 238 236 236 236 236 235 235 234 233 231 232 234 235 234 232 226 218 217 224 227 226 228
224 225 226 226 225 222 217 217 223 227 228 228 231 236 239 242 246 246 243 241 240 238 237 235 233 232 231 232 231 229 230 232 235 236 233 226 217 217 224 228 227 226